Location: Earls Croome
(52.0667°N, 2.2000°W)
Time: 07:21:37
(UTC+00:00)

Cosmos 158 Rocket - Pass Details

Date: 17 November 2019
Orbit: 699 x 792 km, 74.0° (Epoch: 13 December)

Event Time Altitude Azimuth Distance (km) Brightness Sun altitude
Exits shadow 04:34:13 52° 162° (SSE) 877 4.3 -26.9°
Drops below altitude 10° 04:37:54 10° 158° (SSE) 2,167 6.5 -26.4°
Sets 04:40:11 0° 158° (SSE) 3,076 7.4 -26.0°
